SVFLIR Weather Reports


Display with metric or nautical units.
time (UTC)temp
F
wind
direction
speed
MPH
gust
MPH
rain 1hr
in
rain 24hr
in
rain mn
in
humidity
%
barometer
mb
20260507073520 58 46 0.0 1.0 0.00 0.00 0.00 100 1009.4
20260507073240 58 46 0.0 0.0 0.00 0.00 0.00 100 1009.4
20260507072457 59 46 0.0 0.0 0.00 0.00 0.00 100 1009.4
20260507072152 59 46 0.0 0.0 0.00 0.00 0.00 100 1009.4
20260507071645 58 46 0.0 0.0 0.00 0.00 0.00 100 1009.4
20260507070412 59 46 0.0 2.0 0.00 0.00 0.00 100 1009.4
20260507065859 59 46 0.0 2.0 0.00 0.00 0.00 100 1009.4
20260507065611 59 46 0.0 4.0 0.00 0.00 0.00 100 1009.4
20260507064821 58 46 0.0 4.0 0.00 0.00 0.00 100 1009.4
20260507064310 58 254 0.0 1.0 0.00 0.00 0.00 100 1009.4
20260507063804 59 120 0.0 0.0 0.00 0.00 0.00 100 1009.4
20260507063522 59 120 0.0 0.0 0.00 0.00 0.00 100 1009.4
20260507062758 59 120 0.0 0.0 0.00 0.00 0.00 100 1009.4
20260507062255 59 120 0.0 0.0 0.00 0.00 0.00 100 1009.4
20260507061755 59 120 0.0 0.0 0.00 0.00 0.00 100 1009.4
20260507061248 59 120 0.0 0.0 0.00 0.00 0.00 100 1009.4
20260507060735 59 120 0.0 0.0 0.00 0.00 0.00 100 1009.4
20260507060444 60 120 0.0 0.0 0.00 0.00 0.00 100 1009.4
20260507055714 60 120 0.0 0.0 0.00 0.00 0.00 100 1009.4
20260507055211 61 120 0.0 0.0 0.00 0.00 0.00 100 1009.4
20260507054706 62 120 0.0 0.0 0.00 0.00 0.00 100 1009.4
20260507054202 62 120 0.0 0.0 0.00 0.00 0.00 100 1009.4
20260507053643 62 120 0.0 0.0 0.00 0.00 0.00 100 1009.4
20260507053400 63 120 0.0 2.0 0.00 0.00 0.00 100 1009.4
20260507052635 63 120 0.0 2.0 0.00 0.00 0.00 100 1009.4
20260507052135 63 120 0.0 2.0 0.00 0.00 0.00 100 1009.4
20260507051628 64 257 0.0 0.0 0.00 0.00 0.00 100 1009.4
20260507051118 64 257 0.0 0.0 0.00 0.00 0.00 100 1009.4
20260507050617 64 257 0.0 0.0 0.00 0.00 0.00 100 1009.4
20260507050051 65 257 0.0 0.0 0.00 0.00 0.00 100 1009.4
20260507045804 66 257 0.0 0.0 0.00 0.00 0.00 100 1009.4
20260507045032 66 257 0.0 0.0 0.00 0.00 0.00 100 1009.4
20260507044520 67 257 0.0 4.0 0.00 0.00 0.00 100 1009.4
20260507044011 69 257 0.0 4.0 0.00 0.00 0.00 100 1009.4
20260507043511 71 257 0.0 4.0 0.00 0.00 0.00 100 1009.4
20260507043236 72 278 3.0 6.0 0.00 0.00 0.00 100 1009.4
20260507042507 73 272 4.0 6.0 0.00 0.00 0.00 100 1009.4
20260507042007 73 285 5.0 6.0 0.00 0.00 0.00 100 1009.4
20260507041506 73 265 5.0 6.0 0.00 0.00 0.00 100 1009.4
20260507041006 73 248 5.0 6.0 0.00 0.00 0.00 100 1009.4
20260507040505 73 254 4.0 5.0 0.00 0.00 0.00 100 1009.4
20260507040004 73 261 3.0 5.0 0.00 0.00 0.00 100 1009.4
20260507035503 73 274 3.0 6.0 0.00 0.00 0.00 100 1009.4
20260507035002 74 265 4.0 7.0 0.00 0.00 0.00 100 1009.4
20260507034720 74 257 5.0 7.0 0.00 0.00 0.00 100 1009.4
20260507034228 74 250 5.0 8.0 0.00 0.00 0.00 100 1009.4
20260507033725 74 258 5.0 9.0 0.00 0.00 0.00 100 1009.4
20260507033000 75 261 6.0 9.0 0.00 0.00 0.00 100 1009.4
20260507032500 75 258 7.0 10.0 0.00 0.00 0.00 100 1009.4
20260507032226 75 278 7.0 10.0 0.00 0.00 0.00 100 1009.4
20260507031458 75 261 8.0 10.0 0.00 0.00 0.00 100 1009.4
20260507030958 75 289 8.0 10.0 0.00 0.00 0.00 100 1009.4
20260507030458 75 260 7.0 10.0 0.00 0.00 0.00 100 1009.4
20260507025957 75 261 7.0 9.0 0.00 0.00 0.00 100 1009.4
20260507025456 75 274 7.0 9.0 0.00 0.00 0.00 100 1009.4
20260507024956 76 265 6.0 10.0 0.00 0.00 0.00 100 1009.4
20260507024455 76 282 6.0 11.0 0.00 0.00 0.00 100 1009.4
20260507023955 76 251 6.0 11.0 0.00 0.00 0.00 100 1009.4
20260507023454 76 254 6.0 9.0 0.00 0.00 0.00 100 1009.4
20260507022953 75 271 5.0 10.0 0.00 0.00 0.00 100 1009.4
20260507022453 76 265 6.0 11.0 0.00 0.00 0.00 100 1009.4
20260507022219 76 255 7.0 11.0 0.00 0.00 0.00 100 1009.4
20260507021451 76 230 7.0 9.0 0.00 0.00 0.00 100 1009.4
20260507020950 76 260 7.0 9.0 0.00 0.00 0.00 100 1009.4
20260507020717 77 258 6.0 9.0 0.00 0.00 0.00 100 1009.4
20260507020210 77 267 6.0 9.0 0.00 0.00 0.00 100 1009.4
20260507015447 78 271 6.0 10.0 0.00 0.00 0.00 100 1009.4
20260507014947 78 285 6.0 10.0 0.00 0.00 0.00 100 1009.4
20260507014446 78 277 9.0 10.0 0.00 0.00 0.00 100 1009.4
20260507013943 78 261 5.0 10.0 0.00 0.00 0.00 100 1009.4
20260507012942 79 255 5.0 9.0 0.00 0.00 0.00 100 1009.4
20260507012707 79 246 5.0 8.0 0.00 0.00 0.00 100 1009.4
20260507011941 79 248 3.0 11.0 0.00 0.00 0.00 100 1009.4
20260507011439 79 246 5.0 11.0 0.00 0.00 0.00 100 1009.4
20260507010439 79 261 5.0 10.0 0.00 0.00 0.00 100 1009.4
20260507005938 79 225 3.0 11.0 0.00 0.00 0.00 100 1009.4
20260507005658 79 291 6.0 12.0 0.00 0.00 0.00 100 1009.4
20260507004937 79 237 7.0 12.0 0.00 0.00 0.00 100 1009.4
20260507004436 80 247 9.0 10.0 0.00 0.00 0.00 100 1009.4
20260507003936 80 236 5.0 9.0 0.00 0.00 0.00 100 1009.4
20260507003653 80 250 6.0 11.0 0.00 0.00 0.00 100 1009.4
20260507002935 80 237 6.0 14.0 0.00 0.00 0.00 100 1009.4
20260507002434 80 255 8.0 14.0 0.00 0.00 0.00 100 1009.4
20260507001933 80 261 11.0 14.0 0.00 0.00 0.00 100 1009.4
20260507001433 80 243 9.0 11.0 0.00 0.00 0.00 100 1009.4
20260507000932 80 232 4.0 11.0 0.00 0.00 0.00 100 1009.4
20260507000431 80 236 6.0 15.0 0.00 0.00 0.00 100 1009.4
20260506235931 80 232 6.0 15.0 0.00 0.00 0.00 100 1009.4
20260506235431 80 243 11.0 15.0 0.00 0.00 0.00 100 1009.4
20260506234929 80 243 12.0 15.0 0.00 0.00 0.00 100 1009.4
20260506234428 80 251 4.0 10.0 0.00 0.00 0.00 100 1009.4
20260506232927 80 241 10.0 14.0 0.00 0.00 0.00 100 1009.4
20260506232426 80 271 10.0 14.0 0.00 0.00 0.00 100 1009.4
20260506231926 81 254 4.0 12.0 0.00 0.00 0.00 100 1009.4
20260506231425 81 298 7.0 11.0 0.00 0.00 0.00 100 1009.4
20260506230925 80 195 0.0 11.0 0.00 0.00 0.00 100 1009.4
20260506230424 80 286 7.0 17.0 0.00 0.00 0.00 100 1009.4
20260506225924 79 192 1.0 17.0 0.00 0.00 0.00 100 1009.4
20260506225423 80 281 9.0 15.0 0.00 0.00 0.00 100 1009.4
20260506224922 81 232 10.0 15.0 0.00 0.00 0.00 100 1009.4
20260506224421 80 315 8.0 15.0 0.00 0.00 0.00 100 1009.4
20260506223921 82 313 7.0 14.0 0.00 0.00 0.00 100 1009.4
20260506223420 81 268 8.0 13.0 0.00 0.00 0.00 100 1009.4
20260506222920 79 32 0.0 12.0 0.00 0.00 0.00 100 1009.4
20260506222407 80 336 6.0 13.0 0.00 0.00 0.00 100 1009.4
20260506221907 80 309 7.0 13.0 0.00 0.00 0.00 100 1009.4
20260506221406 80 226 6.0 13.0 0.00 0.00 0.00 100 1009.4
20260506220905 81 222 7.0 11.0 0.00 0.00 0.00 100 1009.4
20260506220400 80 358 4.0 13.0 0.00 0.00 0.00 100 1009.4
20260506215858 80 323 8.0 13.0 0.00 0.00 0.00 100 1009.4
20260506215357 80 255 1.0 11.0 0.00 0.00 0.00 100 1009.4
20260506214856 80 213 4.0 11.0 0.00 0.00 0.00 100 1009.4
20260506214356 82 241 7.0 11.0 0.00 0.00 0.00 100 1009.4
20260506213855 81 198 1.0 8.0 0.00 0.00 0.00 100 1009.4
20260506213349 80 209 5.0 7.0 0.00 0.00 0.00 100 1009.4
20260506212848 80 253 2.0 11.0 0.00 0.00 0.00 100 1009.4
20260506212336 80 212 4.0 11.0 0.00 0.00 0.00 100 1009.4
20260506211835 80 171 2.0 8.0 0.00 0.00 0.00 100 1009.4
20260506211335 80 189 4.0 11.0 0.00 0.00 0.00 100 1009.4
20260506210834 79 223 0.0 15.0 0.00 0.00 0.00 100 1009.4
20260506210552 79 285 7.0 15.0 0.00 0.00 0.00 100 1009.4
20260506205831 80 265 9.0 14.0 0.00 0.00 0.00 100 1009.4
20260506205330 79 191 4.0 10.0 0.00 0.00 0.00 100 1009.4
20260506204829 80 272 7.0 15.0 0.00 0.00 0.00 100 1009.4
20260506204553 79 255 1.0 15.0 0.00 0.00 0.00 100 1009.4
20260506203816 81 264 12.0 15.0 0.00 0.00 0.00 100 1009.4
20260506203316 80 246 8.0 11.0 0.00 0.00 0.00 100 1009.4
20260506202815 80 194 7.0 12.0 0.00 0.00 0.00 100 1009.4
20260506202314 79 178 6.0 13.0 0.00 0.00 0.00 100 1009.4
20260506201814 80 208 7.0 13.0 0.00 0.00 0.00 100 1009.4
20260506201313 78 191 5.0 12.0 0.00 0.00 0.00 100 1009.4
20260506200812 79 184 4.0 12.0 0.00 0.00 0.00 100 1009.4
20260506200312 80 251 7.0 14.0 0.00 0.00 0.00 100 1009.4
20260506195811 78 241 6.0 14.0 0.00 0.00 0.00 100 1009.4
20260506195310 77 257 3.0 11.0 0.00 0.00 0.00 100 1009.4
20260506194810 78 30 1.0 12.0 0.00 0.00 0.00 100 1009.4
20260506194309 77 282 3.0 12.0 0.00 0.00 0.00 100 1009.4
20260506194036 79 253 7.0 14.0 0.00 0.00 0.00 100 1009.4
20260506193308 79 213 8.0 14.0 0.00 0.00 0.00 100 1009.4
20260506192808 78 255 9.0 13.0 0.00 0.00 0.00 100 1009.4
20260506192307 79 205 6.0 13.0 0.00 0.00 0.00 100 1009.4
20260506191806 78 201 5.0 11.0 0.00 0.00 0.00 100 1009.4
20260506191306 76 187 4.0 10.0 0.00 0.00 0.00 100 1009.4
20260506190805 77 192 6.0 13.0 0.00 0.00 0.00 100 1009.4
20260506190304 76 189 1.0 13.0 0.00 0.00 0.00 100 1009.4
20260506185804 76 201 8.0 12.0 0.00 0.00 0.00 100 1009.4
20260506185306 77 241 8.0 12.0 0.00 0.00 0.00 100 1009.4
20260506184802 77 262 8.0 12.0 0.00 0.00 0.00 100 1009.4
20260506184302 76 227 3.0 14.0 0.00 0.00 0.00 100 1009.4
20260506183801 77 195 6.0 14.0 0.00 0.00 0.00 100 1009.4
20260506183301 76 250 6.0 12.0 0.00 0.00 0.00 100 1009.4
20260506182800 77 253 9.0 12.0 0.00 0.00 0.00 100 1009.4
20260506182516 75 70 1.0 8.0 0.00 0.00 0.00 100 1009.4
20260506181749 76 220 2.0 8.0 0.00 0.00 0.00 100 1009.4
20260506181248 75 340 3.0 13.0 0.00 0.00 0.00 100 1009.4
20260506180745 75 223 6.0 13.0 0.00 0.00 0.00 100 1009.4
20260506180505 75 209 6.0 12.0 0.00 0.00 0.00 100 1009.4
20260506175744 74 192 6.0 12.0 0.00 0.00 0.00 100 1009.4
20260506175244 75 241 6.0 12.0 0.00 0.00 0.00 100 1009.4
20260506174743 76 243 7.0 10.0 0.00 0.00 0.00 100 1009.4
20260506174243 74 189 0.0 12.0 0.00 0.00 0.00 100 1009.4
20260506173732 73 312 5.0 12.0 0.00 0.00 0.00 100 1009.4
20260506173231 74 261 6.0 11.0 0.00 0.00 0.00 100 1009.4
20260506172731 74 239 7.0 14.0 0.00 0.00 0.00 100 1009.4
20260506172230 74 234 8.0 14.0 0.00 0.00 0.00 100 1009.4
20260506171947 74 243 7.0 9.0 0.00 0.00 0.00 100 1009.4
20260506171229 74 261 4.0 9.0 0.00 0.00 0.00 100 1009.4
20260506170728 73 192 2.0 10.0 0.00 0.00 0.00 100 1009.4
20260506170218 73 281 7.0 11.0 0.00 0.00 0.00 100 1009.4
20260506165717 73 219 6.0 11.0 0.00 0.00 0.00 100 1009.4
20260506165216 73 257 6.0 8.0 0.00 0.00 0.00 100 1009.4
20260506164716 72 240 3.0 9.0 0.00 0.00 0.00 100 1009.4
20260506164215 72 241 6.0 9.0 0.00 0.00 0.00 100 1009.4
20260506163714 70 250 3.0 6.0 0.00 0.00 0.00 100 1009.4
20260506163213 70 248 3.0 8.0 0.00 0.00 0.00 100 1009.4
20260506162713 71 122 3.0 8.0 0.00 0.00 0.00 100 1009.4
20260506162212 71 244 4.0 8.0 0.00 0.00 0.00 100 1009.4
20260506161712 69 330 1.0 7.0 0.00 0.00 0.00 100 1009.4
20260506161435 71 261 4.0 7.0 0.00 0.00 0.00 100 1009.4
20260506160705 69 243 2.0 7.0 0.00 0.00 0.00 100 1009.4
20260506160204 68 199 2.0 9.0 0.00 0.00 0.00 100 1009.4
20260506155653 69 164 1.0 9.0 0.00 0.00 0.00 100 1009.4
20260506155152 69 257 5.0 9.0 0.00 0.00 0.00 100 1009.4
20260506154653 68 209 2.0 7.0 0.00 0.00 0.00 100 1009.4
20260506154149 68 270 2.0 7.0 0.00 0.00 0.00 100 1009.4
20260506153648 67 251 4.0 6.0 0.00 0.00 0.00 100 1009.4
20260506153148 67 261 2.0 7.0 0.00 0.00 0.00 100 1009.4
20260506152643 66 236 1.0 7.0 0.00 0.00 0.00 100 1009.4
20260506152143 67 226 4.0 6.0 0.00 0.00 0.00 100 1009.4
20260506151643 66 226 3.0 7.0 0.00 0.00 0.00 100 1009.4
20260506151400 66 241 4.0 7.0 0.00 0.00 0.00 100 1009.4
20260506150641 65 219 4.0 7.0 0.00 0.00 0.00 100 1009.4
20260506145639 65 262 3.0 5.0 0.00 0.00 0.00 100 1009.4
20260506145139 65 227 0.0 2.0 0.00 0.00 0.00 100 1009.4
20260506144639 65 220 0.0 0.0 0.00 0.00 0.00 100 1009.4
20260506144135 65 220 0.0 0.0 0.00 0.00 0.00 100 1009.4
20260506143631 63 220 0.0 0.0 0.00 0.00 0.00 100 1009.4
20260506143128 64 220 0.0 0.0 0.00 0.00 0.00 100 1009.4
20260506142626 63 220 0.0 0.0 0.00 0.00 0.00 100 1009.4
20260506142121 62 220 0.0 0.0 0.00 0.00 0.00 100 1009.4
20260506141604 62 220 0.0 0.0 0.00 0.00 0.00 100 1009.4
20260506141055 62 220 0.0 0.0 0.00 0.00 0.00 100 1009.4
20260506140813 62 220 0.0 0.0 0.00 0.00 0.00 100 1009.4
20260506140036 60 220 0.0 0.0 0.00 0.00 0.00 100 1009.4
20260506135526 60 220 0.0 0.0 0.00 0.00 0.00 100 1009.4
20260506135013 59 220 0.0 0.0 0.00 0.00 0.00 100 1009.4
20260506134506 58 220 0.0 0.0 0.00 0.00 0.00 100 1009.4
20260506134005 56 220 0.0 0.0 0.00 0.00 0.00 100 1009.4
20260506133501 54 220 0.0 0.0 0.00 0.00 0.00 100 1009.4
20260506133216 53 220 0.0 0.0 0.00 0.00 0.00 100 1009.4
20260506132454 52 220 0.0 0.0 0.00 0.00 0.00 100 1009.4
20260506131951 51 220 0.0 0.0 0.00 0.00 0.00 100 1009.4
20260506131439 49 220 0.0 0.0 0.00 0.00 0.00 100 1009.4
20260506130929 50 220 0.0 0.0 0.00 0.00 0.00 100 1009.4
20260506130637 49 220 0.0 0.0 0.00 0.00 0.00 100 1009.4
20260506125905 49 220 0.0 0.0 0.00 0.00 0.00 100 1009.4
20260506125359 50 220 0.0 0.0 0.00 0.00 0.00 100 1009.4
20260506124859 49 220 0.0 0.0 0.00 0.00 0.00 100 1009.4
20260506124353 50 220 0.0 0.0 0.00 0.00 0.00 100 1009.4
20260506124102 50 220 0.0 0.0 0.00 0.00 0.00 100 1009.4
20260506123337 49 220 0.0 4.0 0.00 0.00 0.00 100 1009.4
20260506122827 50 220 0.0 8.0 0.00 0.00 0.00 100 1009.4
20260506122305 50 188 0.0 8.0 0.00 0.00 0.00 100 1009.4
20260506122025 48 262 0.0 2.0 0.00 0.00 0.00 100 1009.4
20260506121252 49 338 0.0 3.0 0.00 0.00 0.00 100 1009.4
20260506120726 48 341 2.0 3.0 0.00 0.00 0.00 100 1009.4
20260506120224 49 358 0.0 1.0 0.00 0.00 0.00 100 1009.4
20260506115718 48 358 0.0 3.0 0.00 0.00 0.00 100 1009.4
20260506115213 47 358 0.0 4.0 0.00 0.00 0.00 100 1009.4
20260506114930 47 358 1.0 4.0 0.00 0.00 0.00 100 1009.4
20260506114435 45 75 0.0 0.0 0.00 0.00 0.00 100 1009.4
20260506113703 44 75 0.0 0.0 0.00 0.00 0.00 100 1009.4
20260506113137 44 75 0.0 0.0 0.00 0.00 0.00 100 1009.4
20260506112626 46 75 0.0 0.0 0.00 0.00 0.00 100 1009.4
20260506112111 46 75 0.0 0.0 0.00 0.00 0.00 100 1009.4
20260506111602 47 75 0.0 0.0 0.00 0.00 0.00 100 1009.4
20260506111051 47 75 0.0 0.0 0.00 0.00 0.00 100 1009.4
20260506110537 47 75 0.0 0.0 0.00 0.00 0.00 100 1009.4
20260506110245 47 75 0.0 0.0 0.00 0.00 0.00 100 1009.4
20260506105521 47 75 0.0 0.0 0.00 0.00 0.00 100 1009.4
20260506105021 47 75 0.0 0.0 0.00 0.00 0.00 100 1009.4
20260506104451 46 75 0.0 0.0 0.00 0.00 0.00 100 1009.4
20260506103941 47 75 0.0 0.0 0.00 0.00 0.00 100 1009.4
20260506102919 47 75 0.0 0.0 0.00 0.00 0.00 100 1009.4
20260506102352 48 75 0.0 0.0 0.00 0.00 0.00 100 1009.4
20260506101847 49 75 0.0 0.0 0.00 0.00 0.00 100 1009.4
20260506101345 49 75 0.0 0.0 0.00 0.00 0.00 100 1009.4
20260506100840 49 75 0.0 0.0 0.00 0.00 0.00 100 1009.4
20260506100337 51 75 0.0 0.0 0.00 0.00 0.00 100 1009.4
20260506095827 53 75 0.0 0.0 0.00 0.00 0.00 100 1009.4
20260506095542 54 75 0.0 0.0 0.00 0.00 0.00 100 1009.4
20260506094803 55 75 0.0 0.0 0.00 0.00 0.00 100 1009.4
20260506094250 55 75 0.0 0.0 0.00 0.00 0.00 100 1009.4
20260506093749 53 75 0.0 0.0 0.00 0.00 0.00 100 1009.4
20260506093229 51 75 0.0 0.0 0.00 0.00 0.00 100 1009.4
20260506092701 51 75 0.0 0.0 0.00 0.00 0.00 100 1009.4
20260506092151 50 75 0.0 0.0 0.00 0.00 0.00 100 1009.4
20260506091650 50 75 0.0 0.0 0.00 0.00 0.00 100 1009.4
20260506091127 50 75 0.0 0.0 0.00 0.00 0.00 100 1009.4
20260506090625 50 75 0.0 1.0 0.00 0.00 0.00 100 1009.4
20260506090120 50 75 0.0 1.0 0.00 0.00 0.00 100 1009.4
20260506085553 51 75 0.0 1.0 0.00 0.00 0.00 100 1009.4
20260506085040 51 7 0.0 0.0 0.00 0.00 0.00 100 1009.4
20260506084529 51 7 0.0 0.0 0.00 0.00 0.00 100 1009.4
20260506084019 51 7 0.0 0.0 0.00 0.00 0.00 100 1009.4
20260506083451 52 7 0.0 0.0 0.00 0.00 0.00 100 1009.4
20260506082925 52 7 0.0 2.0 0.00 0.00 0.00 100 1009.4
20260506082420 53 7 0.0 3.0 0.00 0.00 0.00 100 1009.4
20260506081918 53 7 0.0 4.0 0.00 0.00 0.00 100 1009.4
20260506081413 54 15 2.0 4.0 0.00 0.00 0.00 100 1009.4
20260506080912 54 358 3.0 4.0 0.00 0.00 0.00 100 1009.4
20260506080627 54 90 0.0 0.0 0.00 0.00 0.00 100 1009.4